Location: El Khoms
(16.4167°N, 9.2500°W)
Time: 05:36:38
(UTC+00:00)

Daily predictions for brighter satellites

Satellite Brightness Start Highest point End
(mag) Time Altitude Azimuth Time Altitude Azimuth Time Altitude Azimuth
CZ-4C R/B 4.3 04:16:36 26° NNE 04:19:50 35° ENE 04:27:18 10° SE
Lacrosse 5 3.2 04:57:51 29° S 04:57:51 29° S 05:00:39 10° S
Cosmos 1340 4.4 04:56:24 10° SSE 04:59:46 32° E 05:01:40 20° NE
CZ-4B R/B 3.3 05:06:10 62° S 05:06:10 62° S 05:09:56 10° S
Meteor 1-25 Rocket 4.0 05:02:43 10° S 05:08:16 79° W 05:13:53 10° N
Cosmos 1241 Rocket 4.3 05:08:15 58° WNW 05:09:18 69° WSW 05:15:30 10° SSE
Cosmos 1190 Rocket 3.9 05:08:56 52° N 05:10:17 85° ENE 05:15:33 10° SSE
Cosmos 1346 Rocket 3.8 05:07:29 10° SSE 05:11:09 43° E 05:14:49 10° NNE
SL-16 R/B 2.7 05:12:51 42° SW 05:12:51 42° SW 05:17:26 10° S
Hubble Space Telescope 1.5 05:13:35 42° NNE 05:13:35 42° NNE 05:16:36 10° ENE
Cosmos 614 Rocket 3.8 05:16:29 61° W 05:16:49 62° WSW 05:21:53 10° S
NOSS 3-2 (C) 4.5 05:18:11 10° S 05:23:18 41° ESE 05:28:37 10° NE
Cosmos 371 Rocket 3.2 05:21:30 10° S 05:26:18 85° ESE 05:31:08 10° NNE
Meteor 1-14 Rocket 4.2 05:20:43 10° S 05:26:36 81° W 05:32:34 10° N
SL-16 Debris 3.3 05:28:22 67° WSW 05:28:46 87° NNW 05:34:59 10° ENE
MOS 1-B 4.4 05:28:47 10° NNE 05:34:33 82° ESE 05:40:19 10° S
Cosmos 1602 3.8 05:35:20 10° SSW 05:39:00 47° W 05:39:33 43° WNW
Cosmos 1461 3.0 05:36:52 25° NNW 05:39:23 83° ENE 05:43:57 10° SSE
Cosmos 1703 Rocket 3.4 05:36:07 12° N 05:40:08 89° W 05:44:29 10° S
Cosmos 1869 Rocket 3.9 05:37:09 10° SSW 05:41:12 40° W 05:42:55 28° NW
Cosmos 1140 Rocket 3.6 05:39:19 25° NW 05:42:10 55° WSW 05:47:16 10° S
ALOS 2.3 05:40:16 10° NNE 05:44:56 80° E 05:49:36 10° S
COBE Rocket 3.9 05:44:15 10° S 05:49:05 59° W 05:53:48 10° NNW
Nadezhda 4 Rocket 4.5 05:48:07 16° NNW 05:52:27 36° W 05:57:56 10° SSW
Cosmos 1302 Rocket 4.5 05:47:25 10° S 05:52:37 64° ESE 05:57:50 10° NNE
GPS 2-15 Rocket1 3.3 05:54:22 23° WNW 05:57:22 69° N 06:02:19 10° E
Okean O Rocket 1.8 05:53:21 10° NNE 05:57:45 76° ESE 06:02:11 10° S
FALCON 9 DEB 4.1 06:00:29 13° N 06:02:04 25° NE 06:04:04 10° ESE
Cosmos 1844 Rocket 2.8 05:56:57 10° SSW 06:02:22 51° WNW 06:07:46 10° N
FENGYUN 3A 3.6 05:58:51 10° N 06:04:09 65° WNW 06:09:28 10° SSW
SKYMED 2 3.9 06:00:25 10° SSE 06:04:42 67° ENE 06:09:00 10° N
CZ-4B DEB 4.3 06:00:27 10° N 06:05:50 54° WNW 06:11:13 10° SSW
Cosmos 2084 Rocket 4.1 06:03:39 18° NW 06:06:29 38° WSW 06:10:30 10° S
Delta 202 3.5 06:03:35 15° W 06:08:01 76° N 06:13:36 10° E
CZ-4C R/B 3.7 06:01:52 14° NW 06:08:26 40° WSW 06:16:06 10° S
Cosmos 1844 3.8 06:03:28 10° SSW 06:09:09 60° WNW 06:14:51 10° N
Cosmos 2279 Rocket 4.1 06:03:20 10° SSW 06:09:18 52° W 06:15:19 10° N
Delta 198 4.3 06:06:34 16° NW 06:09:39 35° N 06:13:18 10° ENE
Skynet4D Del rocket 3.8 06:05:11 16° WNW 06:09:46 76° SSW 06:16:14 10° ESE
FALCON 9 DEB 3.5 06:08:00 12° NNW 06:09:53 35° NE 06:12:04 10° ESE
METEOR-M 4.2 06:05:12 10° N 06:10:22 53° WNW 06:15:33 10° SSW
Cosmos 44 Rocket 3.4 06:05:48 10° SW 06:10:38 51° WNW 06:15:23 10° N
NOSS 3-2 (A) 3.8 06:06:22 10° SW 06:11:18 34° WNW 06:16:31 10° N
Okean 1-7 3.5 06:07:50 10° NNW 06:11:53 38° W 06:15:55 10° SSW
Cosmos 2026 Rocket 4.0 06:07:33 10° NNW 06:13:43 64° W 06:19:59 10° S
Okean 1 3.4 06:10:58 10° NNW 06:14:50 52° W 06:18:43 10° S
BREEZE-M DEB (TANK) 2.9 06:12:45 12° NW 06:15:14 76° NE 06:20:57 10° SE
Cosmos 1484 Rocket 4.3 06:14:10 10° NW 06:16:30 16° WNW 06:18:49 10° WSW
NOAA 6 4.0 06:14:12 10° N 06:19:15 62° WNW 06:24:19 10° SSW
EP 3 4.4 06:18:51 10° SW 06:21:49 47° WNW 06:24:10 10° N
Cosmos 304 Rocket 3.8 06:17:41 10° SSW 06:22:19 54° WNW 06:26:59 10° N
USA 238 DEB 4.4 06:17:22 10° WSW 06:22:50 27° WNW 06:28:23 10° N
USA 238 4.4 06:17:28 10° WSW 06:22:56 27° WNW 06:28:30 10° N
ASTRO E2 3.4 06:19:24 10° SW 06:23:18 55° SSE 06:27:12 10° ENE
SJ-7 4.3 06:19:38 10° N 06:23:36 75° WNW 06:27:34 10° SSW
CENTAUR R/B 2.2 06:19:48 10° SSW 06:25:10 72° WNW 06:31:11 10° NNE
STARLINK 1027 4.1 06:22:41 10° NNW 06:25:22 34° NE 06:28:04 10° ESE
STARLINK 1028 4.1 06:22:52 10° NNW 06:25:35 34° NE 06:28:17 10° ESE
STARLINK 1021 4.1 06:23:05 10° NNW 06:25:48 35° NE 06:28:30 10° ESE
STARLINK 1019 4.1 06:23:18 10° NNW 06:26:03 35° NE 06:28:48 10° ESE
STARLINK 1012 4.1 06:23:32 10° NNW 06:26:16 35° NE 06:28:58 10° ESE
STARLINK 1010 4.1 06:23:47 10° NNW 06:26:31 36° NE 06:29:13 10° ESE
STARLINK 1026 4.0 06:24:00 10° NNW 06:26:43 36° NE 06:29:26 10° ESE
STARLINK 1013 4.0 06:24:13 10° NNW 06:26:57 36° NE 06:29:40 10° ESE
STARLINK 1009 4.0 06:24:27 10° NNW 06:27:10 37° NE 06:29:54 10° ESE
STARLINK 1015 4.0 06:24:39 10° NNW 06:27:24 37° NE 06:30:08 10° ESE
STARLINK 1016 4.0 06:24:52 10° NNW 06:27:37 37° NE 06:30:22 10° ESE
STARLINK 1008 4.0 06:25:03 10° NNW 06:27:46 37° NE 06:30:31 10° ESE
STARLINK 1014 3.9 06:25:19 10° NNW 06:28:04 38° NE 06:30:48 10° ESE
STARLINK 1025 3.9 06:25:32 10° NNW 06:28:17 38° NE 06:31:02 10° ESE
CZ-4B R/B 3.4 06:22:57 10° N 06:28:26 53° WNW 06:33:54 10° SSW
STARLINK 1017 3.9 06:25:47 10° NNW 06:28:31 39° NE 06:31:17 10° SE
STARLINK 1023 3.9 06:25:58 10° NNW 06:28:43 39° NE 06:31:28 10° SE
STARLINK 1007 3.9 06:26:12 10° NNW 06:28:58 39° NE 06:31:44 10° SE
USA 116 4.2 06:25:01 10° SSE 06:29:06 77° ENE 06:33:45 10° N
Cosmos 1536 2.8 06:25:03 10° S 06:29:07 86° W 06:33:10 10° N
STARLINK 1048 3.9 06:26:26 10° NNW 06:29:11 40° NE 06:31:56 10° SE
STARLINK 1049 3.9 06:26:39 10° NNW 06:29:26 40° NE 06:32:11 10° SE
STARLINK 1051 3.8 06:26:52 10° NNW 06:29:38 40° NE 06:32:24 10° SE
STARLINK 1037 3.8 06:27:05 10° NNW 06:29:51 41° NE 06:32:38 10° SE
STARLINK 1059 3.8 06:27:18 10° NNW 06:30:05 41° NE 06:32:52 10° SE
STARLINK 1057 3.8 06:27:31 10° NNW 06:30:18 41° NE 06:33:05 10° SE
STARLINK 1052 3.8 06:27:45 10° NNW 06:30:31 42° NE 06:33:18 10° SE
STARLINK 1068 3.8 06:27:58 10° NNW 06:30:45 42° NE 06:33:33 10° SE
STARLINK 1029 3.7 06:28:11 10° NNW 06:30:58 42° NE 06:33:45 10° SE
STARLINK 1060 3.7 06:28:24 10° NNW 06:31:12 43° NE 06:34:00 10° SE
STARLINK 1034 3.7 06:28:26 10° NNW 06:31:16 43° NE 06:34:04 10° SE
STARLINK 1030 3.7 06:28:35 10° NNW 06:31:25 44° NE 06:34:15 10° SE
STARLINK 1020 3.7 06:28:52 10° NNW 06:31:40 44° NE 06:34:28 10° SE
STARLINK 1040 3.4 06:29:22 10° NNW 06:32:12 51° NE 06:35:03 10° SE
STARLINK 1033 3.6 06:29:31 10° NNW 06:32:20 45° NE 06:35:08 10° SE
STARLINK 1031 3.6 06:29:44 10° NNW 06:32:32 45° NE 06:35:22 10° SE
STARLINK 1024 3.6 06:29:56 10° NNW 06:32:47 46° NE 06:35:38 10° SE
STARLINK 1035 3.6 06:30:11 10° NNW 06:33:00 46° NE 06:35:49 10° SE
STARLINK 1032 3.6 06:30:23 10° NNW 06:33:12 47° NE 06:36:01 10° SE
STARLINK 1011 3.6 06:30:36 10° NNW 06:33:27 47° NE 06:36:19 10° SE
STARLINK 1036 3.5 06:30:51 10° NNW 06:33:40 47° NE 06:36:29 10° SE
STARLINK 1047 3.5 06:31:17 10° NNW 06:34:07 48° NE 06:36:57 10° SE
Cosmos 1943 3.7 06:32:09 10° NW 06:37:21 40° WSW 06:42:35 10° S
